Louisville Bowman, KY

3:32 AM EDT on April 20, 2018 (GMT -0400)
Bowman

Weather History for KLOU - June, 2013

Change the Weather History Date:

Wednesday, June 26, 2013

  Actual Average Record
Temperature  
Mean Temperature 77 °F 77 °F  
Max Temperature 86 °F 87 °F 101 °F (1954)
Min Temperature 68 °F 68 °F 52 °F (1974)
Degree Days  
Heating Degree Days 0 0  
Month to date heating degree days 0 2  
Since 1 June heating degree days 0 2  
Since 1 July heating degree days 4329 4267  
Cooling Degree Days 12 12  
Month to date cooling degree days 250 256  
Year to date cooling degree days 436 403  
Since 1 June cooling degree days 250 256  
Growing Degree Days 27 (Base 50)    
Moisture  
Dew Point 68 °F    
Average Humidity 79    
Maximum Humidity 97    
Minimum Humidity 61    
Precipitation  
Precipitation 3.64 in 0.12 in 3.64 in (2013)
Month to date precipitation 7.96 3.68  
Year to date precipitation 26.69 23.60  
Snow  
Snow 0.00 in - - ()
Month to date snowfall 0.0  
Since 1 June snowfall 0.0  
Snow Depth 0.00 in    
Sea Level Pressure  
Sea Level Pressure 29.89 in    
Wind  
Wind Speed 8 mph (WNW)    
Max Wind Speed 31 mph    
Max Gust Speed 40 mph    
Visibility 6 miles    
Events Fog , Rain , Thunderstorm    
T = Trace of Precipitation, MM = Missing Value Source: NWS Daily Summary

Daily Weather History Graph

Daily Weather History Graph

Search for Another Location

Airport or City:

Astronomy

Jun. 26, 2013 Rise Set
Actual Time 6:21 AM EDT 9:09 PM EDT
Civil Twilight 5:49 AM EDT 9:41 PM EDT
Nautical Twilight 5:09 AM EDT 10:21 PM EDT
Astronomical Twilight 4:24 AM EDT 11:06 PM EDT
Moon 11:36 PM EDT (6/26) 10:08 AM EDT (6/26)
Length of Visible Light 15h 52m
Length of Day
14h 48m
Waning Gibbous, 85% of the Moon is Illuminated
Jun 26
Waning Gibbous
Jun 30
Last Quarter
Jul 8
New
Jul 15
First Quarter
Jul 22
Full

Hourly Weather History & Observations

Time (EDT) Temp. Heat Index Dew Point Humidity Pressure Visibility Wind Dir Wind Speed Gust Speed Precip Events Conditions
12:53 AM 81.0 °F 85.2 °F 72.0 °F 74% 29.95 in 10.0 mi South 3.5 mph - N/A   Partly Cloudy
1:53 AM 80.1 °F 83.8 °F 72.0 °F 76% 29.94 in 10.0 mi SSW 3.5 mph - N/A   Clear
2:53 AM 81.0 °F 84.9 °F 71.1 °F 72% 29.94 in 10.0 mi SW 9.2 mph - N/A   Clear
3:35 AM 75.2 °F - 64.4 °F 69% 29.96 in 10.0 mi NNW 24.2 mph 34.5 mph N/A Thunderstorm Mostly Cloudy
3:44 AM 75.2 °F - 64.4 °F 69% 29.97 in 10.0 mi NNW 16.1 mph 33.4 mph N/A Thunderstorm Thunderstorm
3:53 AM 73.0 °F - 64.9 °F 76% 29.96 in 10.0 mi NW 16.1 mph 25.3 mph 0.00 in Rain , Thunderstorm Light Thunderstorms and Rain
4:00 AM 71.6 °F - 66.2 °F 83% 30.00 in 1.5 mi NW 11.5 mph 25.3 mph 0.27 in Rain , Thunderstorm Heavy Thunderstorms and Rain
4:03 AM 69.8 °F - 66.2 °F 88% 30.00 in 0.8 mi NW 9.2 mph 25.3 mph 0.42 in Rain , Thunderstorm Heavy Thunderstorms and Rain
4:12 AM 69.8 °F - 66.2 °F 88% 30.00 in 1.0 mi NNW 5.8 mph - 0.62 in Rain , Thunderstorm Heavy Thunderstorms and Rain
4:24 AM 69.8 °F - 66.2 °F 88% 29.98 in 1.8 mi NNE 6.9 mph - 0.79 in Rain , Thunderstorm Heavy Thunderstorms and Rain
4:28 AM 69.8 °F - 66.2 °F 88% 29.98 in 2.5 mi North 5.8 mph - 0.81 in Rain , Thunderstorm Heavy Thunderstorms and Rain
4:35 AM 69.8 °F - 68.0 °F 94% 29.99 in 4.0 mi North 6.9 mph - 0.86 in Rain , Thunderstorm Heavy Thunderstorms and Rain
4:53 AM 69.1 °F - 66.9 °F 93% 29.96 in 10.0 mi NNE 3.5 mph - 0.88 in Rain , Thunderstorm Light Rain
5:33 AM 68.0 °F - 66.2 °F 94% 29.98 in 2.5 mi ENE 6.9 mph - 0.13 in Rain , Thunderstorm Heavy Thunderstorms and Rain
5:41 AM 68.0 °F - 66.2 °F 94% 29.97 in 8.0 mi NE 8.1 mph - 0.13 in Rain , Thunderstorm Light Thunderstorms and Rain
5:53 AM 68.0 °F - 66.0 °F 93% 29.96 in 10.0 mi ESE 3.5 mph - 0.14 in Rain , Thunderstorm Light Rain
6:06 AM 68.0 °F - 66.2 °F 94% 29.98 in 10.0 mi South 6.9 mph - 0.00 in   Overcast
6:53 AM 68.0 °F - 66.9 °F 96% 29.95 in 10.0 mi SW 4.6 mph - 0.00 in   Partly Cloudy
7:51 AM 69.8 °F - 68.0 °F 94% 29.97 in 10.0 mi South 8.1 mph - 0.00 in   Partly Cloudy
7:53 AM 69.1 °F - 68.0 °F 96% 29.96 in 10.0 mi South 8.1 mph - 0.00 in   Partly Cloudy
8:53 AM 72.0 °F - 68.0 °F 87% 29.96 in 10.0 mi South 6.9 mph - N/A   Clear
9:53 AM 75.0 °F - 69.1 °F 82% 29.95 in 10.0 mi Variable 4.6 mph - N/A   Partly Cloudy
10:53 AM 79.0 °F - 71.1 °F 77% 29.93 in 10.0 mi South 4.6 mph - N/A   Clear
11:53 AM 82.0 °F 86.7 °F 72.0 °F 71% 29.91 in 10.0 mi SW 11.5 mph 18.4 mph N/A   Partly Cloudy
12:53 PM 84.0 °F 89.6 °F 72.0 °F 67% 29.86 in 10.0 mi SSW 10.4 mph 21.9 mph N/A   Clear
1:53 PM 86.0 °F 92.2 °F 72.0 °F 63% 29.88 in 10.0 mi SSW 11.5 mph 18.4 mph N/A   Mostly Cloudy
2:53 PM 84.9 °F 89.4 °F 70.0 °F 61% 29.87 in 10.0 mi SW 10.4 mph 21.9 mph 0.00 in   Overcast
3:53 PM 84.9 °F 90.7 °F 72.0 °F 65% 29.83 in 10.0 mi SW 9.2 mph - N/A   Mostly Cloudy
4:38 PM 84.2 °F 89.6 °F 71.6 °F 66% 29.84 in 10.0 mi WSW 10.4 mph 17.3 mph N/A Thunderstorm Mostly Cloudy
4:53 PM 75.9 °F - 66.0 °F 71% 29.87 in 10.0 mi NW 17.3 mph 40.3 mph 0.00 in Rain , Thunderstorm Light Rain
4:59 PM 71.6 °F - 68.0 °F 88% 29.90 in 2.5 mi NW 18.4 mph 33.4 mph 0.05 in Rain , Thunderstorm Heavy Thunderstorms and Rain
5:04 PM 71.6 °F - 68.0 °F 88% 29.90 in 0.8 mi WNW 15.0 mph 25.3 mph 0.25 in Rain , Thunderstorm Heavy Thunderstorms and Rain
5:10 PM 68.0 °F - 66.2 °F 94% 29.87 in 0.2 mi NNW 18.4 mph 25.3 mph 0.57 in Fog , Rain , Thunderstorm Heavy Thunderstorms and Rain
5:20 PM 68.0 °F - 66.2 °F 94% 29.86 in 1.0 mi NNW 12.7 mph 24.2 mph 0.72 in Rain , Thunderstorm Heavy Thunderstorms and Rain
5:43 PM 68.0 °F - 66.2 °F 94% 29.86 in 0.5 mi NNE 10.4 mph 16.1 mph 1.14 in Fog , Rain , Thunderstorm Heavy Thunderstorms and Rain
5:53 PM 68.0 °F - 66.9 °F 96% 29.83 in 0.8 mi North 13.8 mph 20.7 mph 1.33 in Rain , Thunderstorm Heavy Thunderstorms and Rain
6:10 PM 69.8 °F - 68.0 °F 94% 29.82 in 2.0 mi Variable 5.8 mph - 0.32 in Rain , Thunderstorm Thunderstorms and Rain
6:12 PM 69.8 °F - 68.0 °F 94% 29.82 in 4.0 mi SSW 6.9 mph - 0.32 in Rain , Thunderstorm Light Thunderstorms and Rain
6:29 PM 69.8 °F - 68.0 °F 94% 29.81 in 10.0 mi SE 3.5 mph - 0.32 in Rain , Thunderstorm Light Thunderstorms and Rain
6:53 PM 70.0 °F - 69.1 °F 97% 29.79 in 10.0 mi ESE 3.5 mph - 0.32 in   Partly Cloudy
7:53 PM 71.1 °F - 69.1 °F 93% 29.79 in 10.0 mi SE 6.9 mph - 0.00 in   Scattered Clouds
8:41 PM 71.6 °F - 68.0 °F 88% 29.79 in 10.0 mi East 4.6 mph - N/A Thunderstorm Mostly Cloudy
8:53 PM 71.1 °F - 68.0 °F 90% 29.77 in 5.0 mi ESE 10.4 mph - 0.03 in Rain , Thunderstorm Thunderstorms and Rain
9:16 PM 71.6 °F - 69.8 °F 94% 29.84 in 2.5 mi NNW 11.5 mph 24.2 mph 0.14 in Rain , Thunderstorm Heavy Thunderstorms and Rain
9:25 PM 71.6 °F - 69.8 °F 94% 29.86 in 1.2 mi WSW 9.2 mph 17.3 mph 0.33 in Rain , Thunderstorm Heavy Thunderstorms and Rain
9:34 PM 71.6 °F - 69.8 °F 94% 29.82 in 0.5 mi NE 5.8 mph - 0.70 in Fog , Rain , Thunderstorm Heavy Thunderstorms and Rain
9:41 PM 71.6 °F - 69.8 °F 94% 29.80 in 1.5 mi NNE 5.8 mph - 0.77 in Rain , Thunderstorm Heavy Thunderstorms and Rain
9:47 PM 71.6 °F - 69.8 °F 94% 29.79 in 3.0 mi ENE 3.5 mph - 0.79 in Rain , Thunderstorm Thunderstorms and Rain
9:53 PM 71.1 °F - 70.0 °F 96% 29.77 in 5.0 mi ESE 5.8 mph - 0.80 in Rain , Thunderstorm Light Thunderstorms and Rain
10:53 PM 72.0 °F - 69.1 °F 91% 29.83 in 8.0 mi WNW 10.4 mph - 0.09 in Rain , Thunderstorm Light Thunderstorms and Rain
10:59 PM 71.6 °F - 69.8 °F 94% 29.86 in 7.0 mi West 9.2 mph - 0.02 in Rain , Thunderstorm Rain
11:07 PM 71.6 °F - 69.8 °F 94% 29.85 in 7.0 mi Calm Calm - 0.02 in Rain , Thunderstorm Light Rain
11:29 PM 71.6 °F - 69.8 °F 94% 29.83 in 7.0 mi Calm Calm - 0.05 in Rain , Thunderstorm Light Rain
11:35 PM 71.6 °F - 69.8 °F 94% 29.84 in 7.0 mi Calm Calm - 0.05 in Rain , Thunderstorm Light Rain
11:53 PM 71.1 °F - 70.0 °F 96% 29.79 in 10.0 mi ESE 4.6 mph - 0.05 in Rain Light Rain